Home   Weather   Redlands   Past weeks

Flag for USA Past Weather in Redlands, California, USA — Yesterday and Last 2 Weeks

77 °F

Partly sunny.

Feels Like: 79 °F
Forecast: 56 / 82 °F
Wind: 6 mph from Southwest

Location: Norton Air Force Base / San Bern

Current Time: Oct 26, 2016 at 6:26:39 PM

Latest Report: Oct 26, 2016 at 5:50 PM

Visibility: 5 mi

Pressure: 29.97 "Hg

Humidity: 47%

Dew Point: 55 °F

Location of RedlandsLocation

Past Weather in Redlands — Graph


Redlands Temperature Yesterday

Maximum temperature yesterday: 77 °F (at 2:50 PM)
Minimum temperature yesterday: 54 °F (at 7:00 AM)
Average temperature yesterday: 63 °F

High & Low Weather Summary for the Past Weeks

High99 °F (Oct 14, 5:49 PM)94% (Oct 24, 7:00 AM)30.15 "Hg (Oct 24, 7:00 AM)
Low51 °F (Oct 13, 6:53 AM)5% (Oct 21, 2:48 PM)29.83 "Hg (Oct 21, 3:47 PM)
Average65 °F58%30.00 "Hg
* Reported Oct 11 4:50 PM — Oct 26 4:50 PM, Redlands, Weather by CustomWeather, © 2016

Note: Actual official high and low records may vary slightly from our data, if they occured in-between our weather recording intervals... More about our weather records


Redlands Weather History for the Previous 24 Hours

Scroll right to see more
Time TempWeatherWind HumidityBarometerVisibility
4:50 PM
Wed, Oct 26
81 °FPartly sunny.8 mph37%29.97 "Hg5 mi
3:50 PM84 °FPartly sunny.9 mph31%29.98 "Hg5 mi
2:47 PM84 °FPartly sunny.7 mph31%29.98 "Hg7 mi
1:47 PM82 °FPartly sunny.9 mph30%30.00 "Hg7 mi
12:45 PM75 °FPartly sunny.3 mph41%30.04 "Hg7 mi
11:48 AM75 °FPartly sunny.No wind41%30.06 "Hg7 mi
9:50 AM68 °FPartly sunny.No wind56%30.11 "Hg7 mi
8:45 AM63 °FPartly sunny.No wind64%30.09 "Hg10 mi
7:47 AM57 °FPartly sunny.No wind77%30.06 "Hg10 mi
7:00 AM55 °FPassing clouds.6 mph88%30.05 "Hg10 mi
6:33 AM55 °FClear.No wind84%30.05 "Hg10 mi
6:14 AM56 °FClear.No wind82%30.06 "Hg10 mi
5:53 AM56 °FClear.No wind83%30.06 "Hg10 mi
5:33 AM56 °FClear.No wind84%30.06 "Hg10 mi
5:13 AM57 °FClear.No wind83%30.06 "Hg10 mi
4:53 AM56 °FClear.No wind84%30.06 "Hg10 mi
4:34 AM58 °FClear.No wind84%30.05 "Hg10 mi
4:13 AM57 °FClear.No wind83%30.04 "Hg10 mi
3:53 AM58 °FClear.No wind82%30.03 "Hg10 mi
3:34 AM58 °FClear.No wind80%30.03 "Hg10 mi
3:13 AM58 °FClear.No wind82%30.03 "Hg10 mi
2:53 AM58 °FClear.No wind84%30.03 "Hg10 mi
2:33 AM58 °FClear.3 mph83%30.03 "Hg10 mi
2:14 AM59 °FClear.No wind79%30.04 "Hg10 mi
1:53 AM59 °FClear.3 mph83%30.05 "Hg10 mi
1:33 AM58 °FClear.3 mph85%30.05 "Hg7 mi
1:13 AM59 °FClear.3 mph85%30.06 "Hg7 mi
12:54 AM59 °FClear.3 mph86%30.07 "Hg7 mi
12:33 AM58 °FFog.3 mph87%30.07 "Hg5 mi
12:13 AM59 °FFog.3 mph86%30.07 "Hg5 mi
11:54 PM
Tue, Oct 25
60 °FClear.No wind83%30.08 "Hg7 mi
11:33 PM61 °FClear.3 mph83%30.09 "Hg7 mi
11:13 PM63 °FClear.No wind78%30.09 "Hg10 mi
10:54 PM63 °FClear.3 mph79%30.09 "Hg10 mi
10:33 PM64 °FClear.5 mph78%30.09 "Hg10 mi
10:13 PM63 °FClear.3 mph81%30.09 "Hg7 mi
9:54 PM64 °FClear.No wind76%30.08 "Hg10 mi
9:33 PM66 °FClear.No wind70%30.08 "Hg10 mi
9:13 PM67 °FClear.No wind67%30.08 "Hg10 mi
8:50 PM68 °FClear.No wind64%30.07 "Hg5 mi
7:50 PM68 °FClear.6 mph64%30.07 "Hg4 mi
6:50 PM72 °FClear.3 mph57%30.04 "Hg4 mi
Weather by CustomWeather, © 2016

See weather overviewHow to use our weather pages